SCOUT A DEB, 4555

Orbit data source: Space-Track

SCOUT A DEB, 4555 is space debris in LEO originally from a launch on Thu, 19 May 1966 UTC launched from the Air Force Western Test Range (AFWTR). Debris objects in space refer to the collection of defunct objects orbiting the Earth. Examples of debris include non-operational satellites, rocket bodies, and fragments generated from explosions, collisions, or faulty payload assembly.

Loading next visibility...
SCOUT A DEB details
Identifier
4555, 1966-041F
Orbit
LEO
Last TLE update1 day ago
Origin
Flag of USUSN NAVAIR (US)
ManufacturerUnknown
MissionSpacecraft
Bus & MotorUnknown
MassUnknown
Launch date (UTC)
1966-05-19 (59 years ago)
Launch vehicleUnknown
Launch site
Air Force Western Test Range (AFWTR)
Object type
Payload
Rocket body
Debris
Shape & HBRUnknown
Radar Cross SectionSmall (<0.1 m²)

Expand to show TLE details & history

TLE from 1 day ago
0 SCOUT A DEB
1 04555U 66041F   24355.62901863  .00004632  00000-0  12280-2 0  9990
2 04555  90.2016  61.3888 0044206 165.2461 195.0047 14.48054310345125
Epoch: 2024-12-20T15:05Z
Definitive object data (Epoch: 2024-12-20T15:05:47.209Z)
Latitude-0.00001°
Longitude105.25031°
Altitude765.481 km
Speed7.455 km/s
True Right ascension04h 05m 33s
True Declination0° 00' 00"
Sunlit
Object was in full shadow at TLE epoch
Visualization TLE readout
Latitude78.99582°
Longitude-73.69484°
Altitude729.934 km
Speed7.505 km/s
Apparent Right ascension01h 02m 17s
Apparent Declination36° 43' 29"
Sunlit
Object is in daylight
Visualization observer readout
Local Sidereal Time13:49:04
Azimuth9.585° NNE
Elevation-12.608°
Doppler factor1
Orbital elements
Apogee altitude760.336 km
Perigee altitude697.501 km
Semi-major axis7,107.056 km
Eccentricity0.0044206
Inclination90.2016°
RAAN61.3888°
Arg. of periapsis165.2461°
True anomaly194.87425°
Mean anomaly195.0047°
Eccentric anomaly194.9394°
Mean motion3.6225 °/min
BSTAR0.001228
Orbital period99.38 mins
Loading maneuver chart data...
Loading historical data...
Loading historical data...
Loading historical data...
Loading historical data...
Loading historical data...
Loading historical data...
Loading historical data...

SCOUT A DEB Visibility forecast

Observer location: undefined°, undefined

Span
Click to sort rows by Start time (UTC) header in descending order
Start Az.
Max El. time (UTC)
Max El. Az.
Max El.
End time (UTC)
End Az.
8 mins2024-12-21 16:32:53.301Z16.126° NNE2024-12-21 16:36:53.301Z78.666° E35.908°2024-12-21 16:40:53.301Z159.351° S
4 mins2024-12-21 18:14:53.301Z301.887° NW2024-12-21 18:15:53.301Z287.061° WNW15.818°2024-12-21 18:18:53.301Z247.44° WSW
4 mins2024-12-22 03:44:53.301Z99.655° ESE2024-12-22 03:46:53.301Z71.716° E16.315°2024-12-22 03:48:53.301Z44.944° NE
8 mins2024-12-22 05:21:53.301Z200.002° SSW2024-12-22 05:25:53.301Z285.673° WNW37.194°2024-12-22 05:29:53.301Z344.822° N
|